Orbital Elements at Epoch 2459000.5 (2020-May-31.0) TDB
Reference: JPL 13 (heliocentric ecliptic J2000)
Element | Value | Uncertainty (1-sigma) | Units |
e | .0839889002943616 | 4.9577e-08 | |
a | 3.08793138084919 | 3.6429e-08 | au |
q | 2.828579419987217 | 1.4778e-07 | au |
i | 16.29399592282814 | 9.4467e-06 | deg |
node | 212.1982696855185 | 1.8709e-05 | deg |
peri | 266.4101486843329 | 5.8458e-05 | deg |
M | 140.5624169641915 | 5.5389e-05 | deg |
tp | 2458226.632507508302 (2018-Apr-18.13250751) | 0.00030479 | TDB |
period | 1981.982832352572 5.43 | 3.5073e-05 9.602e-08 | d yr |
n | .1816362857052034 | 3.2142e-09 | deg/d |
Q | 3.347283341711163 | 3.9489e-08 | au |
|
| | Orbit Determination Parameters
Additional Information
|